Terminal Aerodrome Forecast
Issued by NWS

Current Version | Previous Version | Graphics & Text | Print | Product List | Glossary On
Versions: 1 2 3 4 5 6 7 8 9 10 11 12 13 14 15 16 17 18 19
000
FTUS41 KPBZ 271700 RRA
TAFHLG
TAF
KHLG 271751Z 2718/2818 28005KT P6SM FEW030
     FM281000 VRB02KT 5SM BR FEW200
     FM281300 12004KT P6SM FEW025 SCT100=

USA.gov is the U.S. government's official web portal to all federal, state and local government web resources and services.